Weather in Smilavichy

Belarus     53°45′07″N   28°00′41″E
temp.,
°C
wind,
m/s
gust,
m/s
humid.,
%
clouds,
%
prec.,
mm/h
press.,
hPa
HPBL,
m
28 june, tue
tue2800:00+23e1174100 0.0 102212
03:00+22ene1176100 0.1 102111
06:00+22ese117795 0.0 102111
09:00+24ese127470 0.0 1021176
12:00+27n116062 0.0 1021692
15:00+29n214988 0.0 10201526
18:00+25wsw3464100 0.2 1020126
21:00+23nnw117078 0.4 101912
29 june, wed
wed2900:00+20ne1180100 0.1 102012
03:00+20s118447 0.3 101911
06:00+20wnw118795 0.6 101911
09:00+23nnw017783 0.9 1019147
12:00+27n225429 2.3 10181173
15:00+29nw115025 2.3 10181824
18:00+26e457449 1.1 1017309
21:00+21sse36915 5.7 1018120
30 june, thu
thu3000:00+18ese379771 0.0 1019184
03:00+17ese379835 0.0 1019186
06:00+16e3696100 0.0 1020197
09:00+20ese468417 0.0 1020443
12:00+24ese456587 0.0 1020978
15:00+26ese445676 0.0 10201676
18:00+26ene4565100 0.0 1019580
21:00+20e488194 0.0 1020180
1 july, fri
fri100:00+17ese368091 0.0 1021105
03:00+16ese3383100 0.0 102242
06:00+15se348718 0.0 102272
09:00+20se3469100 0.0 1022336
12:00+24se3361100 0.0 10221057
15:00+26ese345279 0.0 10211582
18:00+25ese3458100 0.0 1021459
21:00+20ese357634 0.0 102174
2 july, sat
sat200:00+17se36805 0.0 102182
03:00+16se33857 0.0 102233
06:00+17sse228617 0.0 102231
09:00+22s347069 0.0 1021344
12:00+26s34535 0.0 10211231
15:00+28sw33445 0.0 10201748
18:00+28sw23524 0.0 10191512
21:00+23e226816 0.0 101811